| time (UTC) | temp F | wind direction | speed MPH | gust MPH | rain 1hr in | rain 24hr in | rain mn in | humidity % | barometer mb |
| 20260506071115 | 74 | 234 | 1.0 | 4.0 | 0.00 | 0.00 | 0.00 | 41 | 1009.9 |
| 20260506070218 | 72 | 249 | 2.0 | 4.0 | 0.00 | 0.00 | 0.00 | 42 | 1009.9 |
| 20260506062014 | 68 | 252 | 2.0 | 4.0 | 0.00 | 0.00 | 0.00 | 50 | 1010.0 |
| 20260506060904 | 68 | 225 | 1.0 | 2.0 | 0.00 | 0.00 | 0.00 | 49 | 1010.2 |
| 20260506050904 | 63 | 264 | 2.0 | 4.0 | 0.00 | 0.00 | 0.00 | 60 | 1009.8 |
| 20260506044713 | 60 | 225 | 0.0 | 2.0 | 0.00 | 0.00 | 0.00 | 64 | 1009.7 |
| 20260506043815 | 60 | 229 | 1.0 | 2.0 | 0.00 | 0.00 | 0.00 | 64 | 1009.5 |
| 20260506042703 | 59 | 225 | 2.0 | 2.0 | 0.00 | 0.00 | 0.00 | 65 | 1009.5 |
| 20260506041803 | 58 | 225 | 1.0 | 2.0 | 0.00 | 0.00 | 0.00 | 67 | 1009.5 |
| 20260506041117 | 58 | 225 | 0.0 | 2.0 | 0.00 | 0.00 | 0.00 | 67 | 1009.6 |
| 20260506040215 | 58 | 225 | 1.0 | 2.0 | 0.00 | 0.00 | 0.00 | 67 | 1009.3 |
| 20260506035403 | 58 | 225 | 1.0 | 2.0 | 0.00 | 0.00 | 0.00 | 67 | 1009.6 |
| 20260506034714 | 58 | 238 | 1.0 | 2.0 | 0.00 | 0.00 | 0.00 | 67 | 1009.3 |
| 20260506033603 | 59 | 270 | 0.0 | 4.0 | 0.00 | 0.00 | 0.00 | 66 | 1009.3 |
| 20260506032913 | 59 | 257 | 2.0 | 4.0 | 0.00 | 0.00 | 0.00 | 66 | 1009.1 |
| 20260506032016 | 58 | 225 | 1.0 | 2.0 | 0.00 | 0.00 | 0.00 | 66 | 1009.0 |
| 20260506030904 | 58 | 225 | 0.0 | 4.0 | 0.00 | 0.00 | 0.00 | 66 | 1009.0 |
| 20260506030216 | 59 | 225 | 2.0 | 4.0 | 0.00 | 0.00 | 0.00 | 66 | 1008.9 |
| 20260506025617 | 58 | 225 | 0.0 | 2.0 | 0.00 | 0.00 | 0.00 | 66 | 1009.0 |
| 20260506024503 | 58 | 225 | 0.0 | 2.0 | 0.00 | 0.00 | 0.00 | 66 | 1008.8 |
| 20260506023603 | 58 | 225 | 0.0 | 2.0 | 0.00 | 0.00 | 0.00 | 66 | 1008.9 |
| 20260506022703 | 58 | 225 | 0.0 | 2.0 | 0.00 | 0.00 | 0.00 | 66 | 1009.2 |
| 20260506022016 | 58 | 225 | 0.0 | 2.0 | 0.00 | 0.00 | 0.00 | 66 | 1009.2 |
| 20260506020904 | 58 | 225 | 1.0 | 2.0 | 0.00 | 0.00 | 0.00 | 66 | 1009.0 |
| 20260506020004 | 59 | 232 | 0.0 | 2.0 | 0.00 | 0.00 | 0.00 | 66 | 1009.1 |
| 20260506015403 | 59 | 247 | 0.0 | 2.0 | 0.00 | 0.00 | 0.00 | 66 | 1009.3 |
| 20260506014715 | 59 | 247 | 0.0 | 2.0 | 0.00 | 0.00 | 0.00 | 66 | 1009.2 |
| 20260506013817 | 59 | 247 | 1.0 | 2.0 | 0.00 | 0.00 | 0.00 | 66 | 1009.4 |
| 20260506012703 | 60 | 247 | 2.0 | 2.0 | 0.00 | 0.00 | 0.00 | 66 | 1009.4 |
| 20260506012017 | 60 | 0 | 0.0 | 0.0 | 0.00 | 0.00 | 0.00 | 66 | 1009.3 |
| 20260506011114 | 60 | 0 | 0.0 | 0.0 | 0.00 | 0.00 | 0.00 | 66 | 1009.1 |
| 20260506010004 | 60 | 247 | 0.0 | 2.0 | 0.00 | 0.00 | 0.00 | 65 | 1009.4 |
| 20260506005403 | 60 | 0 | 0.0 | 0.0 | 0.00 | 0.00 | 0.00 | 65 | 1009.2 |
| 20260506004504 | 61 | 247 | 0.0 | 2.0 | 0.00 | 0.00 | 0.00 | 64 | 1009.6 |
| 20260506003603 | 61 | 247 | 0.0 | 2.0 | 0.00 | 0.00 | 0.00 | 63 | 1009.5 |
| 20260506002915 | 61 | 0 | 0.0 | 0.0 | 0.00 | 0.00 | 0.00 | 63 | 1009.3 |
| 20260506002018 | 61 | 247 | 0.0 | 2.0 | 0.00 | 0.00 | 0.00 | 62 | 1009.2 |
| 20260506001115 | 62 | 247 | 0.0 | 2.0 | 0.00 | 0.00 | 0.00 | 62 | 1009.5 |
| 20260506000004 | 62 | 247 | 0.0 | 2.0 | 0.00 | 0.00 | 0.00 | 62 | 1009.3 |
| 20260505235403 | 62 | 247 | 0.0 | 2.0 | 0.00 | 0.00 | 0.00 | 62 | 1009.6 |
| 20260505234716 | 61 | 247 | 0.0 | 2.0 | 0.00 | 0.00 | 0.00 | 62 | 1009.5 |
| 20260505233813 | 61 | 0 | 0.0 | 0.0 | 0.00 | 0.00 | 0.00 | 62 | 1009.5 |
| 20260505232703 | 61 | 0 | 0.0 | 0.0 | 0.00 | 0.00 | 0.00 | 62 | 1009.6 |
| 20260505231803 | 61 | 0 | 0.0 | 0.0 | 0.00 | 0.00 | 0.00 | 63 | 1009.6 |
| 20260505231115 | 60 | 0 | 0.0 | 0.0 | 0.00 | 0.00 | 0.00 | 62 | 1009.6 |
| 20260505230218 | 61 | 0 | 0.0 | 0.0 | 0.00 | 0.00 | 0.00 | 62 | 1009.7 |
| 20260505225403 | 61 | 0 | 0.0 | 0.0 | 0.00 | 0.00 | 0.00 | 62 | 1009.9 |
| 20260505224503 | 61 | 0 | 0.0 | 0.0 | 0.00 | 0.00 | 0.00 | 61 | 1009.9 |
| 20260505223814 | 62 | 247 | 0.0 | 2.0 | 0.00 | 0.00 | 0.00 | 60 | 1009.8 |
| 20260505222916 | 62 | 247 | 1.0 | 2.0 | 0.00 | 0.00 | 0.00 | 60 | 1010.1 |
| 20260505221804 | 62 | 0 | 0.0 | 0.0 | 0.00 | 0.00 | 0.00 | 60 | 1009.9 |
| 20260505221116 | 62 | 247 | 0.0 | 2.0 | 0.00 | 0.00 | 0.00 | 59 | 1009.8 |
| 20260505220213 | 62 | 247 | 0.0 | 4.0 | 0.00 | 0.00 | 0.00 | 59 | 1009.9 |
| 20260505215615 | 62 | 247 | 0.0 | 4.0 | 0.00 | 0.00 | 0.00 | 60 | 1009.7 |
| 20260505214503 | 62 | 247 | 0.0 | 2.0 | 0.00 | 0.00 | 0.00 | 61 | 1009.8 |
| 20260505213603 | 62 | 247 | 0.0 | 2.0 | 0.00 | 0.00 | 0.00 | 60 | 1009.8 |
| 20260505212703 | 63 | 263 | 0.0 | 2.0 | 0.00 | 0.00 | 0.00 | 60 | 1010.0 |
| 20260505212014 | 63 | 270 | 1.0 | 2.0 | 0.00 | 0.00 | 0.00 | 60 | 1010.2 |
| 20260505211117 | 63 | 270 | 0.0 | 2.0 | 0.00 | 0.00 | 0.00 | 61 | 1009.9 |
| 20260505210009 | 64 | 270 | 0.0 | 2.0 | 0.00 | 0.00 | 0.00 | 60 | 1009.8 |
| 20260505205403 | 64 | 270 | 0.0 | 2.0 | 0.00 | 0.00 | 0.00 | 58 | 1009.9 |
| 20260505204713 | 64 | 270 | 0.0 | 2.0 | 0.00 | 0.00 | 0.00 | 56 | 1009.9 |
| 20260505203815 | 65 | 270 | 1.0 | 2.0 | 0.00 | 0.00 | 0.00 | 55 | 1009.8 |
| 20260505202703 | 65 | 270 | 0.0 | 2.0 | 0.00 | 0.00 | 0.00 | 55 | 1010.0 |
| 20260505202015 | 65 | 270 | 0.0 | 2.0 | 0.00 | 0.00 | 0.00 | 54 | 1010.2 |
| 20260505201117 | 65 | 270 | 2.0 | 2.0 | 0.00 | 0.00 | 0.00 | 54 | 1010.0 |
| 20260505200004 | 65 | 270 | 1.0 | 2.0 | 0.00 | 0.00 | 0.00 | 54 | 1010.0 |
| 20260505195616 | 65 | 270 | 0.0 | 2.0 | 0.00 | 0.00 | 0.00 | 55 | 1010.0 |
| 20260505194503 | 66 | 270 | 1.0 | 2.0 | 0.00 | 0.00 | 0.00 | 54 | 1010.1 |
| 20260505193603 | 66 | 270 | 0.0 | 4.0 | 0.00 | 0.00 | 0.00 | 55 | 1010.0 |
| 20260505192913 | 66 | 271 | 2.0 | 4.0 | 0.00 | 0.00 | 0.00 | 54 | 1010.0 |
| 20260505192016 | 65 | 270 | 2.0 | 2.0 | 0.00 | 0.00 | 0.00 | 56 | 1009.9 |
| 20260505190904 | 66 | 270 | 1.0 | 2.0 | 0.00 | 0.00 | 0.00 | 54 | 1010.0 |
| 20260505190004 | 66 | 270 | 2.0 | 4.0 | 0.00 | 0.00 | 0.00 | 54 | 1009.9 |
| 20260505185617 | 66 | 260 | 2.0 | 4.0 | 0.00 | 0.00 | 0.00 | 54 | 1009.8 |
| 20260505184503 | 66 | 265 | 0.0 | 4.0 | 0.00 | 0.00 | 0.00 | 54 | 1009.7 |
| 20260505183603 | 67 | 256 | 2.0 | 4.0 | 0.00 | 0.00 | 0.00 | 53 | 1009.7 |
| 20260505182914 | 67 | 261 | 2.0 | 4.0 | 0.00 | 0.00 | 0.00 | 53 | 1009.6 |
| 20260505181804 | 67 | 264 | 4.0 | 7.0 | 0.00 | 0.00 | 0.00 | 53 | 1009.5 |
| 20260505181114 | 67 | 265 | 3.0 | 6.0 | 0.00 | 0.00 | 0.00 | 52 | 1009.5 |
| 20260505180216 | 67 | 261 | 4.0 | 7.0 | 0.00 | 0.00 | 0.00 | 52 | 1009.4 |
| 20260505175618 | 67 | 262 | 2.0 | 8.0 | 0.00 | 0.00 | 0.00 | 52 | 1009.1 |
| 20260505174504 | 67 | 258 | 4.0 | 7.0 | 0.00 | 0.00 | 0.00 | 52 | 1009.4 |
| 20260505173817 | 68 | 257 | 2.0 | 8.0 | 0.00 | 0.00 | 0.00 | 52 | 1009.3 |
| 20260505172703 | 68 | 265 | 2.0 | 4.0 | 0.00 | 0.00 | 0.00 | 51 | 1009.0 |
| 20260505171804 | 69 | 277 | 3.0 | 7.0 | 0.00 | 0.00 | 0.00 | 52 | 1009.2 |
| 20260505170904 | 69 | 276 | 4.0 | 6.0 | 0.00 | 0.00 | 0.00 | 50 | 1009.1 |
| 20260505170217 | 70 | 255 | 3.0 | 6.0 | 0.00 | 0.00 | 0.00 | 49 | 1009.2 |
| 20260505165403 | 72 | 256 | 1.0 | 6.0 | 0.00 | 0.00 | 0.00 | 44 | 1009.3 |
| 20260505164503 | 71 | 274 | 4.0 | 7.0 | 0.00 | 0.00 | 0.00 | 46 | 1009.1 |
| 20260505163813 | 72 | 266 | 4.0 | 8.0 | 0.00 | 0.00 | 0.00 | 46 | 1008.8 |
| 20260505162915 | 72 | 268 | 5.0 | 8.0 | 0.00 | 0.00 | 0.00 | 44 | 1009.1 |
| 20260505161804 | 73 | 259 | 5.0 | 8.0 | 0.00 | 0.00 | 0.00 | 41 | 1009.2 |
| 20260505161115 | 74 | 259 | 2.0 | 9.0 | 0.00 | 0.00 | 0.00 | 39 | 1009.1 |
| 20260505152703 | 76 | 237 | 2.0 | 4.0 | 0.00 | 0.00 | 0.00 | 32 | 1008.7 |
| 20260505151804 | 76 | 246 | 2.0 | 7.0 | 0.00 | 0.00 | 0.00 | 32 | 1008.9 |
| 20260505150904 | 74 | 239 | 2.0 | 9.0 | 0.00 | 0.00 | 0.00 | 34 | 1009.1 |
| 20260505140213 | 76 | 127 | 3.0 | 7.0 | 0.00 | 0.00 | 0.00 | 31 | 1009.1 |
| 20260505130214 | 76 | 98 | 8.0 | 14.0 | 0.00 | 0.00 | 0.00 | 30 | 1009.2 |
| 20260505124713 | 78 | 162 | 3.0 | 11.0 | 0.00 | 0.00 | 0.00 | 27 | 1009.5 |
| 20260505123603 | 76 | 104 | 5.0 | 11.0 | 0.00 | 0.00 | 0.00 | 28 | 1009.7 |
| 20260505122913 | 76 | 127 | 6.0 | 11.0 | 0.00 | 0.00 | 0.00 | 28 | 1009.8 |
| 20260505121804 | 77 | 117 | 4.0 | 9.0 | 0.00 | 0.00 | 0.00 | 27 | 1009.6 |
| 20260505120903 | 77 | 123 | 4.0 | 13.0 | 0.00 | 0.00 | 0.00 | 28 | 1009.8 |
| 20260505120215 | 78 | 104 | 3.0 | 13.0 | 0.00 | 0.00 | 0.00 | 27 | 1009.7 |
| 20260505115616 | 76 | 117 | 6.0 | 11.0 | 0.00 | 0.00 | 0.00 | 29 | 1009.8 |
| 20260505114503 | 77 | 143 | 5.0 | 13.0 | 0.00 | 0.00 | 0.00 | 29 | 1010.1 |
| 20260505113816 | 77 | 143 | 3.0 | 9.0 | 0.00 | 0.00 | 0.00 | 29 | 1010.0 |
| 20260505112913 | 77 | 182 | 3.0 | 11.0 | 0.00 | 0.00 | 0.00 | 31 | 1010.0 |
| 20260505112016 | 76 | 232 | 4.0 | 14.0 | 0.00 | 0.00 | 0.00 | 34 | 1010.0 |
| 20260505110904 | 75 | 255 | 11.0 | 18.0 | 0.00 | 0.00 | 0.00 | 35 | 1009.9 |
| 20260505101803 | 76 | 263 | 2.0 | 11.0 | 0.00 | 0.00 | 0.00 | 32 | 1010.2 |
| 20260505101114 | 76 | 277 | 3.0 | 9.0 | 0.00 | 0.00 | 0.00 | 32 | 1010.3 |
| 20260505100216 | 74 | 274 | 4.0 | 11.0 | 0.00 | 0.00 | 0.00 | 33 | 1010.4 |
| 20260505095403 | 76 | 286 | 3.0 | 11.0 | 0.00 | 0.00 | 0.00 | 33 | 1010.6 |
| 20260505094715 | 75 | 282 | 5.0 | 11.0 | 0.00 | 0.00 | 0.00 | 34 | 1010.4 |
| 20260505093603 | 74 | 282 | 5.0 | 13.0 | 0.00 | 0.00 | 0.00 | 37 | 1010.5 |
| 20260505092914 | 73 | 269 | 8.0 | 13.0 | 0.00 | 0.00 | 0.00 | 35 | 1010.6 |
| 20260505092017 | 73 | 263 | 3.0 | 11.0 | 0.00 | 0.00 | 0.00 | 39 | 1010.6 |
| 20260505091114 | 74 | 271 | 8.0 | 11.0 | 0.00 | 0.00 | 0.00 | 39 | 1010.6 |
| 20260505090004 | 73 | 286 | 9.0 | 13.0 | 0.00 | 0.00 | 0.00 | 40 | 1010.8 |
| 20260505085403 | 73 | 285 | 5.0 | 13.0 | 0.00 | 0.00 | 0.00 | 36 | 1010.8 |
| 20260505084715 | 75 | 97 | 0.0 | 7.0 | 0.00 | 0.00 | 0.00 | 36 | 1010.9 |
| 20260505083603 | 74 | 101 | 2.0 | 6.0 | 0.00 | 0.00 | 0.00 | 37 | 1010.8 |
| 20260505082703 | 73 | 112 | 2.0 | 6.0 | 0.00 | 0.00 | 0.00 | 37 | 1010.8 |
| 20260505082012 | 73 | 106 | 2.0 | 4.0 | 0.00 | 0.00 | 0.00 | 37 | 1011.0 |
| 20260505080904 | 73 | 206 | 2.0 | 6.0 | 0.00 | 0.00 | 0.00 | 37 | 1011.1 |
| 20260505080217 | 72 | 202 | 2.0 | 6.0 | 0.00 | 0.00 | 0.00 | 37 | 1011.2 |
| 20260505075403 | 72 | 241 | 1.0 | 6.0 | 0.00 | 0.00 | 0.00 | 37 | 1011.2 |
| 20260505074716 | 73 | 99 | 1.0 | 4.0 | 0.00 | 0.00 | 0.00 | 38 | 1011.2 |
| 20260505073813 | 71 | 122 | 2.0 | 4.0 | 0.00 | 0.00 | 0.00 | 38 | 1011.4 |
| 20260505072703 | 70 | 117 | 2.0 | 4.0 | 0.00 | 0.00 | 0.00 | 40 | 1011.3 |
| 20260505071803 | 71 | 228 | 1.0 | 4.0 | 0.00 | 0.00 | 0.00 | 41 | 1011.3 |